owner,sensor,date,latitude,longitude,vertical_datum,sea_water_practical_salinity,qcFlag 
DISL,ioos:station:DISL:CATA:1,2009-03-01T00:00:00Z,30.3085,-88.1395,2.396,24.8,1111122 
DISL,ioos:station:DISL:CATA:1,2009-03-01T00:30:00Z,30.3085,-88.1395,2.366,24.61,1111122 
DISL,ioos:station:DISL:CATA:1,2009-03-01T01:00:00Z,30.3085,-88.1395,2.311,24.61,1111122 
DISL,ioos:station:DISL:CATA:1,2009-03-01T01:30:00Z,30.3085,-88.1395,2.286,24.57,1111122 
DISL,ioos:station:DISL:CATA:1,2009-03-01T02:00:00Z,30.3085,-88.1395,2.254,24.81,1111122 
DISL,ioos:station:DISL:CATA:1,2009-03-01T02:30:00Z,30.3085,-88.1395,2.219,24.88,1111122 
DISL,ioos:station:DISL:CATA:1,2009-03-01T03:00:00Z,30.3085,-88.1395,2.184,24.82,1111122 
DISL,ioos:station:DISL:CATA:1,2009-03-01T03:30:00Z,30.3085,-88.1395,2.182,24.58,1111122 
DISL,ioos:station:DISL:CATA:1,2009-03-01T04:00:00Z,30.3085,-88.1395,2.138,24.78,1111122 
DISL,ioos:station:DISL:CATA:1,2009-03-01T04:30:00Z,30.3085,-88.1395,2.111,24.58,1111122 
DISL,ioos:station:DISL:CATA:1,2009-03-01T05:00:00Z,30.3085,-88.1395,2.117,24.51,1111122 
DISL,ioos:station:DISL:CATA:1,2009-03-01T05:30:00Z,30.3085,-88.1395,2.131,24.82,1111122 
DISL,ioos:station:DISL:CATA:1,2009-03-01T06:00:00Z,30.3085,-88.1395,2.098,24.08,1111122 
DISL,ioos:station:DISL:CATA:1,2009-03-01T06:30:00Z,30.3085,-88.1395,2.079,23.93,1111122 
DISL,ioos:station:DISL:CATA:1,2009-03-01T07:00:00Z,30.3085,-88.1395,2.075,24.7,1111122 
DISL,ioos:station:DISL:CATA:1,2009-03-01T07:30:00Z,30.3085,-88.1395,2.046,24.64,1111122 
DISL,ioos:station:DISL:CATA:1,2009-03-01T08:00:00Z,30.3085,-88.1395,2.024,24.2,1111122 
DISL,ioos:station:DISL:CATA:1,2009-03-01T08:30:00Z,30.3085,-88.1395,2.058,23.84,1111122 
DISL,ioos:station:DISL:CATA:1,2009-03-01T09:00:00Z,30.3085,-88.1395,2.085,22.9,1111122 
DISL,ioos:station:DISL:CATA:1,2009-03-01T09:30:00Z,30.3085,-88.1395,2.116,23.54,1111122 
DISL,ioos:station:DISL:CATA:1,2009-03-01T10:00:00Z,30.3085,-88.1395,2.093,24.37,1111122 
DISL,ioos:station:DISL:CATA:1,2009-03-01T10:30:00Z,30.3085,-88.1395,2.063,25.63,1111122 
DISL,ioos:station:DISL:CATA:1,2009-03-01T11:00:00Z,30.3085,-88.1395,2.061,24.48,1111122 
DISL,ioos:station:DISL:CATA:1,2009-03-01T11:30:00Z,30.3085,-88.1395,2.082,23.28,1111122 
DISL,ioos:station:DISL:CATA:1,2009-03-01T12:00:00Z,30.3085,-88.1395,2.053,23.03,1111122 
DISL,ioos:station:DISL:CATA:1,2009-03-01T12:30:00Z,30.3085,-88.1395,2.034,22.7,1111122 
DISL,ioos:station:DISL:CATA:1,2009-03-01T13:00:00Z,30.3085,-88.1395,2.04,22.33,1111122 
DISL,ioos:station:DISL:CATA:1,2009-03-01T13:30:00Z,30.3085,-88.1395,2.076,22.6,1111122 
DISL,ioos:station:DISL:CATA:1,2009-03-01T14:00:00Z,30.3085,-88.1395,2.076,22.89,1111122 
DISL,ioos:station:DISL:CATA:1,2009-03-01T14:30:00Z,30.3085,-88.1395,2.086,22.62,1111122 
DISL,ioos:station:DISL:CATA:1,2009-03-01T15:00:00Z,30.3085,-88.1395,2.11,22.47,1111122 
DISL,ioos:station:DISL:CATA:1,2009-03-01T15:30:00Z,30.3085,-88.1395,2.15,21.92,1111122 
DISL,ioos:station:DISL:CATA:1,2009-03-01T16:00:00Z,30.3085,-88.1395,2.172,22.17,1111122 
DISL,ioos:station:DISL:CATA:1,2009-03-01T16:30:00Z,30.3085,-88.1395,2.179,21.99,1111122 
DISL,ioos:station:DISL:CATA:1,2009-03-01T17:00:00Z,30.3085,-88.1395,2.191,21.52,1111122 
DISL,ioos:station:DISL:CATA:1,2009-03-01T17:30:00Z,30.3085,-88.1395,2.222,21.03,1111122 
DISL,ioos:station:DISL:CATA:1,2009-03-01T18:00:00Z,30.3085,-88.1395,2.223,20.98,1111122 
DISL,ioos:station:DISL:CATA:1,2009-03-01T18:30:00Z,30.3085,-88.1395,2.222,20.73,1111122 
DISL,ioos:station:DISL:CATA:1,2009-03-01T19:30:00Z,30.3085,-88.1395,2.222,21.68,1111122 
DISL,ioos:station:DISL:CATA:1,2009-03-01T20:00:00Z,30.3085,-88.1395,2.193,22.04,1111122 
DISL,ioos:station:DISL:CATA:1,2009-03-01T20:30:00Z,30.3085,-88.1395,2.195,22.11,1111122 
DISL,ioos:station:DISL:CATA:1,2009-03-01T21:00:00Z,30.3085,-88.1395,2.218,21.79,1111122 
DISL,ioos:station:DISL:CATA:1,2009-03-01T21:30:00Z,30.3085,-88.1395,2.207,21.76,1111122 
DISL,ioos:station:DISL:CATA:1,2009-03-01T22:00:00Z,30.3085,-88.1395,2.178,21.83,1111122 
DISL,ioos:station:DISL:CATA:1,2009-03-01T22:30:00Z,30.3085,-88.1395,2.167,22.05,1111122 
DISL,ioos:station:DISL:CATA:1,2009-03-01T23:00:00Z,30.3085,-88.1395,2.167,21.98,1111122 
DISL,ioos:station:DISL:CATA:1,2009-03-01T23:30:00Z,30.3085,-88.1395,2.13,21.88,1111122 
DISL,ioos:station:DISL:CATA:1,2009-03-02T00:00:00Z,30.3085,-88.1395,2.103,22.33,1111122 
DISL,ioos:station:DISL:CATA:1,2009-03-02T00:30:00Z,30.3085,-88.1395,2.076,22.41,1111122 
DISL,ioos:station:DISL:CATA:1,2009-03-02T01:00:00Z,30.3085,-88.1395,2.035,21.73,1111122 
DISL,ioos:station:DISL:CATA:1,2009-03-02T01:30:00Z,30.3085,-88.1395,2.011,21.6,1111122 
DISL,ioos:station:DISL:CATA:1,2009-03-02T02:00:00Z,30.3085,-88.1395,1.981,21.52,1111122 
DISL,ioos:station:DISL:CATA:1,2009-03-02T02:30:00Z,30.3085,-88.1395,1.952,21.19,1111122 
DISL,ioos:station:DISL:CATA:1,2009-03-02T03:00:00Z,30.3085,-88.1395,1.949,21.1,1111122 
DISL,ioos:station:DISL:CATA:1,2009-03-02T03:30:00Z,30.3085,-88.1395,1.924,20.88,1111122 
DISL,ioos:station:DISL:CATA:1,2009-03-02T04:00:00Z,30.3085,-88.1395,1.913,21.14,1111122 
DISL,ioos:station:DISL:CATA:1,2009-03-02T04:30:00Z,30.3085,-88.1395,1.89,21.44,1111122 
DISL,ioos:station:DISL:CATA:1,2009-03-02T05:00:00Z,30.3085,-88.1395,1.881,21.68,1111122 
DISL,ioos:station:DISL:CATA:1,2009-03-02T05:30:00Z,30.3085,-88.1395,1.869,21.93,1111122 
DISL,ioos:station:DISL:CATA:1,2009-03-02T06:00:00Z,30.3085,-88.1395,1.867,22.48,1111122 
DISL,ioos:station:DISL:CATA:1,2009-03-02T06:30:00Z,30.3085,-88.1395,1.878,22.98,1111122 
DISL,ioos:station:DISL:CATA:1,2009-03-02T07:00:00Z,30.3085,-88.1395,1.876,23.01,1111122 
DISL,ioos:station:DISL:CATA:1,2009-03-02T07:30:00Z,30.3085,-88.1395,1.858,23.08,1111122 
DISL,ioos:station:DISL:CATA:1,2009-03-02T08:00:00Z,30.3085,-88.1395,1.856,23.21,1111122 
DISL,ioos:station:DISL:CATA:1,2009-03-02T08:30:00Z,30.3085,-88.1395,1.864,23.26,1111122 
DISL,ioos:station:DISL:CATA:1,2009-03-02T09:00:00Z,30.3085,-88.1395,1.877,23.48,1111122 
DISL,ioos:station:DISL:CATA:1,2009-03-02T09:30:00Z,30.3085,-88.1395,1.887,23.6,1111122 
DISL,ioos:station:DISL:CATA:1,2009-03-02T10:00:00Z,30.3085,-88.1395,1.9,23.55,1111122 
DISL,ioos:station:DISL:CATA:1,2009-03-02T10:30:00Z,30.3085,-88.1395,1.911,22.87,1111122 
DISL,ioos:station:DISL:CATA:1,2009-03-02T11:00:00Z,30.3085,-88.1395,1.934,22.43,1111122 
DISL,ioos:station:DISL:CATA:1,2009-03-02T11:30:00Z,30.3085,-88.1395,1.972,22.07,1111122 
DISL,ioos:station:DISL:CATA:1,2009-03-02T12:00:00Z,30.3085,-88.1395,2.004,21.82,1111122 
DISL,ioos:station:DISL:CATA:1,2009-03-02T12:30:00Z,30.3085,-88.1395,2.031,21.07,1111122 
DISL,ioos:station:DISL:CATA:1,2009-03-02T13:00:00Z,30.3085,-88.1395,2.06,21.08,1111122 
DISL,ioos:station:DISL:CATA:1,2009-03-02T13:30:00Z,30.3085,-88.1395,2.096,20.52,1111122 
DISL,ioos:station:DISL:CATA:1,2009-03-02T14:00:00Z,30.3085,-88.1395,2.12,20.35,1111122 
DISL,ioos:station:DISL:CATA:1,2009-03-02T14:30:00Z,30.3085,-88.1395,2.145,20.34,1111122 
DISL,ioos:station:DISL:CATA:1,2009-03-02T15:00:00Z,30.3085,-88.1395,2.177,20.25,1111122 
DISL,ioos:station:DISL:CATA:1,2009-03-02T15:30:00Z,30.3085,-88.1395,2.206,20.92,1111122 
DISL,ioos:station:DISL:CATA:1,2009-03-02T16:00:00Z,30.3085,-88.1395,2.216,22.73,1111122 
DISL,ioos:station:DISL:CATA:1,2009-03-02T16:30:00Z,30.3085,-88.1395,2.246,22.77,1111122 
DISL,ioos:station:DISL:CATA:1,2009-03-02T17:00:00Z,30.3085,-88.1395,2.262,24.27,1111122 
DISL,ioos:station:DISL:CATA:1,2009-03-02T17:30:00Z,30.3085,-88.1395,2.301,24.89,1111122 
DISL,ioos:station:DISL:CATA:1,2009-03-02T18:00:00Z,30.3085,-88.1395,2.328,23.36,1111122 
DISL,ioos:station:DISL:CATA:1,2009-03-02T18:30:00Z,30.3085,-88.1395,2.359,22.14,1111122 
DISL,ioos:station:DISL:CATA:1,2009-03-02T19:00:00Z,30.3085,-88.1395,2.392,22.31,1111122 
DISL,ioos:station:DISL:CATA:1,2009-03-02T19:30:00Z,30.3085,-88.1395,2.399,22.48,1111122 
DISL,ioos:station:DISL:CATA:1,2009-03-02T20:00:00Z,30.3085,-88.1395,2.409,22.56,1111122 
DISL,ioos:station:DISL:CATA:1,2009-03-02T20:30:00Z,30.3085,-88.1395,2.411,22.42,1111122 
DISL,ioos:station:DISL:CATA:1,2009-03-02T21:00:00Z,30.3085,-88.1395,2.4,22.81,1111122 
DISL,ioos:station:DISL:CATA:1,2009-03-02T21:30:00Z,30.3085,-88.1395,2.395,23.34,1111122 
DISL,ioos:station:DISL:CATA:1,2009-03-02T22:00:00Z,30.3085,-88.1395,2.372,24.26,1111122 
DISL,ioos:station:DISL:CATA:1,2009-03-02T22:30:00Z,30.3085,-88.1395,2.351,24.75,1111122 
DISL,ioos:station:DISL:CATA:1,2009-03-02T23:00:00Z,30.3085,-88.1395,2.336,25.12,1111122 
DISL,ioos:station:DISL:CATA:1,2009-03-02T23:30:00Z,30.3085,-88.1395,2.317,24.64,1111122 
DISL,ioos:station:DISL:CATA:1,2009-03-03T00:00:00Z,30.3085,-88.1395,2.283,22.37,1111122 
DISL,ioos:station:DISL:CATA:1,2009-03-03T00:30:00Z,30.3085,-88.1395,2.261,22.56,1111122 
DISL,ioos:station:DISL:CATA:1,2009-03-03T01:00:00Z,30.3085,-88.1395,2.238,22.74,1111122 
DISL,ioos:station:DISL:CATA:1,2009-03-03T01:30:00Z,30.3085,-88.1395,2.207,22.49,1111122 
DISL,ioos:station:DISL:CATA:1,2009-03-03T02:00:00Z,30.3085,-88.1395,2.177,22.73,1111122 
DISL,ioos:station:DISL:CATA:1,2009-03-03T02:30:00Z,30.3085,-88.1395,2.144,22.45,1111122 
DISL,ioos:station:DISL:CATA:1,2009-03-03T03:00:00Z,30.3085,-88.1395,2.115,22.46,1111122 
DISL,ioos:station:DISL:CATA:1,2009-03-03T03:30:00Z,30.3085,-88.1395,2.091,22.67,1111122 
DISL,ioos:station:DISL:CATA:1,2009-03-03T04:00:00Z,30.3085,-88.1395,2.075,22.74,1111122 
DISL,ioos:station:DISL:CATA:1,2009-03-03T04:30:00Z,30.3085,-88.1395,2.05,22.78,1111122 
DISL,ioos:station:DISL:CATA:1,2009-03-03T05:00:00Z,30.3085,-88.1395,2.013,22.72,1111122 
DISL,ioos:station:DISL:CATA:1,2009-03-03T05:30:00Z,30.3085,-88.1395,1.985,22.7,1111122 
DISL,ioos:station:DISL:CATA:1,2009-03-03T06:00:00Z,30.3085,-88.1395,1.949,22.63,1111122 
DISL,ioos:station:DISL:CATA:1,2009-03-03T06:30:00Z,30.3085,-88.1395,1.928,22.46,1111122 
DISL,ioos:station:DISL:CATA:1,2009-03-03T07:00:00Z,30.3085,-88.1395,1.93,22.15,1111122 
DISL,ioos:station:DISL:CATA:1,2009-03-03T07:30:00Z,30.3085,-88.1395,1.921,22.03,1111122 
DISL,ioos:station:DISL:CATA:1,2009-03-03T08:00:00Z,30.3085,-88.1395,1.917,22.2,1111122 
DISL,ioos:station:DISL:CATA:1,2009-03-03T08:30:00Z,30.3085,-88.1395,1.932,22.27,1111122 
DISL,ioos:station:DISL:CATA:1,2009-03-03T09:00:00Z,30.3085,-88.1395,1.938,22.35,1111122 
DISL,ioos:station:DISL:CATA:1,2009-03-03T09:30:00Z,30.3085,-88.1395,1.95,22.45,1111122 
DISL,ioos:station:DISL:CATA:1,2009-03-03T10:00:00Z,30.3085,-88.1395,1.971,22.49,1111122 
DISL,ioos:station:DISL:CATA:1,2009-03-03T10:30:00Z,30.3085,-88.1395,1.988,22.54,1111122 
DISL,ioos:station:DISL:CATA:1,2009-03-03T11:00:00Z,30.3085,-88.1395,2.013,22.57,1111122 
DISL,ioos:station:DISL:CATA:1,2009-03-03T11:30:00Z,30.3085,-88.1395,2.023,22.59,1111122 
DISL,ioos:station:DISL:CATA:1,2009-03-03T12:00:00Z,30.3085,-88.1395,2.042,22.61,1111122 
DISL,ioos:station:DISL:CATA:1,2009-03-03T12:30:00Z,30.3085,-88.1395,2.074,23.15,1111122 
DISL,ioos:station:DISL:CATA:1,2009-03-03T13:00:00Z,30.3085,-88.1395,2.099,23.25,1111122 
DISL,ioos:station:DISL:CATA:1,2009-03-03T13:30:00Z,30.3085,-88.1395,2.113,23.13,1111122 
DISL,ioos:station:DISL:CATA:1,2009-03-03T14:00:00Z,30.3085,-88.1395,2.127,23.13,1111122 
DISL,ioos:station:DISL:CATA:1,2009-03-03T14:30:00Z,30.3085,-88.1395,2.162,23.2,1111122 
DISL,ioos:station:DISL:CATA:1,2009-03-03T15:00:00Z,30.3085,-88.1395,2.202,23.1,1111122 
DISL,ioos:station:DISL:CATA:1,2009-03-03T15:30:00Z,30.3085,-88.1395,2.235,22.98,1111122 
DISL,ioos:station:DISL:CATA:1,2009-03-03T16:00:00Z,30.3085,-88.1395,2.271,22.39,1111122 
DISL,ioos:station:DISL:CATA:1,2009-03-03T16:30:00Z,30.3085,-88.1395,2.294,21.67,1111122 
DISL,ioos:station:DISL:CATA:1,2009-03-03T17:00:00Z,30.3085,-88.1395,2.332,21.73,1111122 
DISL,ioos:station:DISL:CATA:1,2009-03-03T17:30:00Z,30.3085,-88.1395,2.361,22.78,1111122 
DISL,ioos:station:DISL:CATA:1,2009-03-03T18:00:00Z,30.3085,-88.1395,2.394,22.75,1111122 
DISL,ioos:station:DISL:CATA:1,2009-03-03T18:30:00Z,30.3085,-88.1395,2.426,23.0,1111122 
DISL,ioos:station:DISL:CATA:1,2009-03-03T19:00:00Z,30.3085,-88.1395,2.45,23.5,1111122 
DISL,ioos:station:DISL:CATA:1,2009-03-03T19:30:00Z,30.3085,-88.1395,2.469,24.0,1111122 
DISL,ioos:station:DISL:CATA:1,2009-03-03T20:00:00Z,30.3085,-88.1395,2.489,24.52,1111122 
DISL,ioos:station:DISL:CATA:1,2009-03-03T20:30:00Z,30.3085,-88.1395,2.51,25.04,1111122 
DISL,ioos:station:DISL:CATA:1,2009-03-03T21:00:00Z,30.3085,-88.1395,2.515,25.36,1111122 
DISL,ioos:station:DISL:CATA:1,2009-03-03T21:30:00Z,30.3085,-88.1395,2.511,25.52,1111122 
DISL,ioos:station:DISL:CATA:1,2009-03-03T22:00:00Z,30.3085,-88.1395,2.514,25.69,1111122 
DISL,ioos:station:DISL:CATA:1,2009-03-03T22:30:00Z,30.3085,-88.1395,2.508,26.07,1111122 
DISL,ioos:station:DISL:CATA:1,2009-03-03T23:00:00Z,30.3085,-88.1395,2.487,26.4,1111122 
DISL,ioos:station:DISL:CATA:1,2009-03-03T23:30:00Z,30.3085,-88.1395,2.46,26.5,1111122 
DISL,ioos:station:DISL:CATA:1,2009-03-04T00:00:00Z,30.3085,-88.1395,2.431,25.31,1111122 
DISL,ioos:station:DISL:CATA:1,2009-03-04T00:30:00Z,30.3085,-88.1395,2.411,19.4,1111122 
DISL,ioos:station:DISL:CATA:1,2009-03-04T01:00:00Z,30.3085,-88.1395,2.38,18.55,1111122 
DISL,ioos:station:DISL:CATA:1,2009-03-04T01:30:00Z,30.3085,-88.1395,2.348,19.01,1111122 
DISL,ioos:station:DISL:CATA:1,2009-03-04T02:00:00Z,30.3085,-88.1395,2.316,19.02,1111122 
DISL,ioos:station:DISL:CATA:1,2009-03-04T02:30:00Z,30.3085,-88.1395,2.29,19.02,1111122 
DISL,ioos:station:DISL:CATA:1,2009-03-04T03:00:00Z,30.3085,-88.1395,2.266,19.05,1111122 
DISL,ioos:station:DISL:CATA:1,2009-03-04T03:30:00Z,30.3085,-88.1395,2.236,18.79,1111122 
DISL,ioos:station:DISL:CATA:1,2009-03-04T04:00:00Z,30.3085,-88.1395,2.201,18.28,1111122 
DISL,ioos:station:DISL:CATA:1,2009-03-04T04:30:00Z,30.3085,-88.1395,2.175,17.97,1111122 
DISL,ioos:station:DISL:CATA:1,2009-03-04T05:00:00Z,30.3085,-88.1395,2.143,18.08,1111122 
DISL,ioos:station:DISL:CATA:1,2009-03-04T05:30:00Z,30.3085,-88.1395,2.113,18.12,1111122 
DISL,ioos:station:DISL:CATA:1,2009-03-04T06:00:00Z,30.3085,-88.1395,2.087,17.94,1111122 
DISL,ioos:station:DISL:CATA:1,2009-03-04T06:30:00Z,30.3085,-88.1395,2.072,17.76,1111122 
DISL,ioos:station:DISL:CATA:1,2009-03-04T07:00:00Z,30.3085,-88.1395,2.056,17.52,1111122 
DISL,ioos:station:DISL:CATA:1,2009-03-04T07:30:00Z,30.3085,-88.1395,2.037,17.49,1111122 
DISL,ioos:station:DISL:CATA:1,2009-03-04T08:00:00Z,30.3085,-88.1395,2.023,17.13,1111122 
DISL,ioos:station:DISL:CATA:1,2009-03-04T08:30:00Z,30.3085,-88.1395,2.021,16.74,1111122 
DISL,ioos:station:DISL:CATA:1,2009-03-04T09:00:00Z,30.3085,-88.1395,2.022,16.38,1111122 
DISL,ioos:station:DISL:CATA:1,2009-03-04T09:30:00Z,30.3085,-88.1395,2.03,16.15,1111122 
DISL,ioos:station:DISL:CATA:1,2009-03-04T10:00:00Z,30.3085,-88.1395,2.039,16.16,1111122 
DISL,ioos:station:DISL:CATA:1,2009-03-04T10:30:00Z,30.3085,-88.1395,2.05,15.75,1111122 
DISL,ioos:station:DISL:CATA:1,2009-03-04T11:00:00Z,30.3085,-88.1395,2.063,15.5,1111122 
DISL,ioos:station:DISL:CATA:1,2009-03-04T11:30:00Z,30.3085,-88.1395,2.087,15.44,1111122 
DISL,ioos:station:DISL:CATA:1,2009-03-04T12:00:00Z,30.3085,-88.1395,2.113,15.33,1111122 
DISL,ioos:station:DISL:CATA:1,2009-03-04T12:30:00Z,30.3085,-88.1395,2.146,15.2,1111122 
DISL,ioos:station:DISL:CATA:1,2009-03-04T13:00:00Z,30.3085,-88.1395,2.173,15.66,1111122 
DISL,ioos:station:DISL:CATA:1,2009-03-04T13:30:00Z,30.3085,-88.1395,2.205,15.88,1111122 
DISL,ioos:station:DISL:CATA:1,2009-03-04T14:00:00Z,30.3085,-88.1395,2.248,15.99,1111122 
DISL,ioos:station:DISL:CATA:1,2009-03-04T14:30:00Z,30.3085,-88.1395,2.278,16.09,1111122 
DISL,ioos:station:DISL:CATA:1,2009-03-04T15:00:00Z,30.3085,-88.1395,2.298,15.94,1111122 
DISL,ioos:station:DISL:CATA:1,2009-03-04T15:30:00Z,30.3085,-88.1395,2.322,15.62,1111122 
DISL,ioos:station:DISL:CATA:1,2009-03-04T16:00:00Z,30.3085,-88.1395,2.346,15.75,1111122 
DISL,ioos:station:DISL:CATA:1,2009-03-04T16:30:00Z,30.3085,-88.1395,2.372,15.79,1111122 
DISL,ioos:station:DISL:CATA:1,2009-03-04T17:00:00Z,30.3085,-88.1395,2.407,15.51,1111122 
DISL,ioos:station:DISL:CATA:1,2009-03-04T17:30:00Z,30.3085,-88.1395,2.451,15.4,1111122 
DISL,ioos:station:DISL:CATA:1,2009-03-04T18:00:00Z,30.3085,-88.1395,2.482,15.42,1111122 
DISL,ioos:station:DISL:CATA:1,2009-03-04T18:30:00Z,30.3085,-88.1395,2.509,15.61,1111122 
DISL,ioos:station:DISL:CATA:1,2009-03-04T19:00:00Z,30.3085,-88.1395,2.535,16.3,1111122 
DISL,ioos:station:DISL:CATA:1,2009-03-04T19:30:00Z,30.3085,-88.1395,2.556,17.76,1111122 
DISL,ioos:station:DISL:CATA:1,2009-03-04T20:00:00Z,30.3085,-88.1395,2.578,18.15,1111122 
DISL,ioos:station:DISL:CATA:1,2009-03-04T20:30:00Z,30.3085,-88.1395,2.592,18.52,1111122 
DISL,ioos:station:DISL:CATA:1,2009-03-04T21:00:00Z,30.3085,-88.1395,2.614,18.8,1111122 
DISL,ioos:station:DISL:CATA:1,2009-03-04T21:30:00Z,30.3085,-88.1395,2.625,19.1,1111122 
DISL,ioos:station:DISL:CATA:1,2009-03-04T22:00:00Z,30.3085,-88.1395,2.626,20.14,1111122 
DISL,ioos:station:DISL:CATA:1,2009-03-04T22:30:00Z,30.3085,-88.1395,2.63,20.81,1111122 
DISL,ioos:station:DISL:CATA:1,2009-03-04T23:00:00Z,30.3085,-88.1395,2.621,21.17,1111122 
DISL,ioos:station:DISL:CATA:1,2009-03-04T23:30:00Z,30.3085,-88.1395,2.606,21.26,1111122 
DISL,ioos:station:DISL:CATA:1,2009-03-05T00:00:00Z,30.3085,-88.1395,2.588,21.05,1111122 
DISL,ioos:station:DISL:CATA:1,2009-03-05T00:30:00Z,30.3085,-88.1395,2.572,18.66,1111122 
DISL,ioos:station:DISL:CATA:1,2009-03-05T01:00:00Z,30.3085,-88.1395,2.544,15.93,1111122 
DISL,ioos:station:DISL:CATA:1,2009-03-05T01:30:00Z,30.3085,-88.1395,2.527,15.91,1111122 
DISL,ioos:station:DISL:CATA:1,2009-03-05T02:00:00Z,30.3085,-88.1395,2.485,15.7,1111122 
DISL,ioos:station:DISL:CATA:1,2009-03-05T02:30:00Z,30.3085,-88.1395,2.458,15.55,1111122 
DISL,ioos:station:DISL:CATA:1,2009-03-05T03:00:00Z,30.3085,-88.1395,2.425,15.5,1111122 
DISL,ioos:station:DISL:CATA:1,2009-03-05T03:30:00Z,30.3085,-88.1395,2.386,15.58,1111122 
DISL,ioos:station:DISL:CATA:1,2009-03-05T04:00:00Z,30.3085,-88.1395,2.353,15.61,1111122 
DISL,ioos:station:DISL:CATA:1,2009-03-05T04:30:00Z,30.3085,-88.1395,2.319,15.39,1111122 
DISL,ioos:station:DISL:CATA:1,2009-03-05T05:00:00Z,30.3085,-88.1395,2.286,14.83,1111122 
DISL,ioos:station:DISL:CATA:1,2009-03-05T05:30:00Z,30.3085,-88.1395,2.249,14.26,1111122 
DISL,ioos:station:DISL:CATA:1,2009-03-05T06:00:00Z,30.3085,-88.1395,2.213,14.01,1111122 
DISL,ioos:station:DISL:CATA:1,2009-03-05T06:30:00Z,30.3085,-88.1395,2.187,13.56,1111122 
DISL,ioos:station:DISL:CATA:1,2009-03-05T07:00:00Z,30.3085,-88.1395,2.165,13.49,1111122 
DISL,ioos:station:DISL:CATA:1,2009-03-05T07:30:00Z,30.3085,-88.1395,2.147,13.17,1111122 
DISL,ioos:station:DISL:CATA:1,2009-03-05T08:00:00Z,30.3085,-88.1395,2.13,13.01,1111122 
DISL,ioos:station:DISL:CATA:1,2009-03-05T08:30:00Z,30.3085,-88.1395,2.112,12.81,1111122 
DISL,ioos:station:DISL:CATA:1,2009-03-05T09:00:00Z,30.3085,-88.1395,2.096,12.73,1111122 
DISL,ioos:station:DISL:CATA:1,2009-03-05T09:30:00Z,30.3085,-88.1395,2.091,12.64,1111122 
DISL,ioos:station:DISL:CATA:1,2009-03-05T10:00:00Z,30.3085,-88.1395,2.087,12.63,1111122 
DISL,ioos:station:DISL:CATA:1,2009-03-05T10:30:00Z,30.3085,-88.1395,2.093,12.5,1111122 
DISL,ioos:station:DISL:CATA:1,2009-03-05T11:00:00Z,30.3085,-88.1395,2.107,12.46,1111122 
DISL,ioos:station:DISL:CATA:1,2009-03-05T11:30:00Z,30.3085,-88.1395,2.141,12.43,1111122 
DISL,ioos:station:DISL:CATA:1,2009-03-05T12:00:00Z,30.3085,-88.1395,2.162,12.42,1111122 
DISL,ioos:station:DISL:CATA:1,2009-03-05T12:30:00Z,30.3085,-88.1395,2.187,12.34,1111122 
DISL,ioos:station:DISL:CATA:1,2009-03-05T13:00:00Z,30.3085,-88.1395,2.213,12.3,1111122 
DISL,ioos:station:DISL:CATA:1,2009-03-05T13:30:00Z,30.3085,-88.1395,2.243,12.41,1111122 
DISL,ioos:station:DISL:CATA:1,2009-03-05T14:00:00Z,30.3085,-88.1395,2.273,12.26,1111122 
DISL,ioos:station:DISL:CATA:1,2009-03-05T14:30:00Z,30.3085,-88.1395,2.315,12.29,1111122 
DISL,ioos:station:DISL:CATA:1,2009-03-05T15:00:00Z,30.3085,-88.1395,2.351,12.3,1111122 
DISL,ioos:station:DISL:CATA:1,2009-03-05T15:30:00Z,30.3085,-88.1395,2.37,12.3,1111122 
DISL,ioos:station:DISL:CATA:1,2009-03-05T16:00:00Z,30.3085,-88.1395,2.4,12.33,1111122 
DISL,ioos:station:DISL:CATA:1,2009-03-05T16:30:00Z,30.3085,-88.1395,2.431,12.33,1111122 
DISL,ioos:station:DISL:CATA:1,2009-03-05T17:00:00Z,30.3085,-88.1395,2.467,12.41,1111122 
DISL,ioos:station:DISL:CATA:1,2009-03-05T17:30:00Z,30.3085,-88.1395,2.495,12.74,1111122 
DISL,ioos:station:DISL:CATA:1,2009-03-05T18:00:00Z,30.3085,-88.1395,2.523,13.42,1111122 
DISL,ioos:station:DISL:CATA:1,2009-03-05T18:30:00Z,30.3085,-88.1395,2.561,13.95,1111122 
DISL,ioos:station:DISL:CATA:1,2009-03-05T19:00:00Z,30.3085,-88.1395,2.586,14.48,1111122 
DISL,ioos:station:DISL:CATA:1,2009-03-05T19:30:00Z,30.3085,-88.1395,2.613,14.81,1111122 
DISL,ioos:station:DISL:CATA:1,2009-03-05T20:00:00Z,30.3085,-88.1395,2.635,15.29,1111122 
DISL,ioos:station:DISL:CATA:1,2009-03-05T20:30:00Z,30.3085,-88.1395,2.665,16.05,1111122 
DISL,ioos:station:DISL:CATA:1,2009-03-05T21:00:00Z,30.3085,-88.1395,2.666,16.31,1111122 
DISL,ioos:station:DISL:CATA:1,2009-03-05T21:30:00Z,30.3085,-88.1395,2.692,16.45,1111122 
DISL,ioos:station:DISL:CATA:1,2009-03-05T22:00:00Z,30.3085,-88.1395,2.714,16.6,1111122 
DISL,ioos:station:DISL:CATA:1,2009-03-05T22:30:00Z,30.3085,-88.1395,2.726,17.39,1111122 
DISL,ioos:station:DISL:CATA:1,2009-03-05T23:00:00Z,30.3085,-88.1395,2.738,18.48,1111122 
DISL,ioos:station:DISL:CATA:1,2009-03-05T23:30:00Z,30.3085,-88.1395,2.737,19.17,1111122 
DISL,ioos:station:DISL:CATA:1,2009-03-06T00:00:00Z,30.3085,-88.1395,2.726,19.41,1111122 
DISL,ioos:station:DISL:CATA:1,2009-03-06T00:30:00Z,30.3085,-88.1395,2.717,19.45,1111122 
DISL,ioos:station:DISL:CATA:1,2009-03-06T01:00:00Z,30.3085,-88.1395,2.701,18.93,1111122 
DISL,ioos:station:DISL:CATA:1,2009-03-06T01:30:00Z,30.3085,-88.1395,2.678,16.87,1111122 
DISL,ioos:station:DISL:CATA:1,2009-03-06T02:00:00Z,30.3085,-88.1395,2.657,13.27,1111122 
DISL,ioos:station:DISL:CATA:1,2009-03-06T02:30:00Z,30.3085,-88.1395,2.627,13.1,1111122 
DISL,ioos:station:DISL:CATA:1,2009-03-06T03:00:00Z,30.3085,-88.1395,2.59,13.19,1111122 
DISL,ioos:station:DISL:CATA:1,2009-03-06T03:30:00Z,30.3085,-88.1395,2.556,13.26,1111122 
DISL,ioos:station:DISL:CATA:1,2009-03-06T04:00:00Z,30.3085,-88.1395,2.515,12.45,1111122 
DISL,ioos:station:DISL:CATA:1,2009-03-06T04:30:00Z,30.3085,-88.1395,2.475,12.24,1111122 
DISL,ioos:station:DISL:CATA:1,2009-03-06T05:00:00Z,30.3085,-88.1395,2.439,12.38,1111122 
DISL,ioos:station:DISL:CATA:1,2009-03-06T05:30:00Z,30.3085,-88.1395,2.403,12.37,1111122 
DISL,ioos:station:DISL:CATA:1,2009-03-06T06:00:00Z,30.3085,-88.1395,2.364,12.09,1111122 
DISL,ioos:station:DISL:CATA:1,2009-03-06T06:30:00Z,30.3085,-88.1395,2.331,11.99,1111122 
DISL,ioos:station:DISL:CATA:1,2009-03-06T07:00:00Z,30.3085,-88.1395,2.296,11.98,1111122 
DISL,ioos:station:DISL:CATA:1,2009-03-06T07:30:00Z,30.3085,-88.1395,2.262,11.92,1111122 
DISL,ioos:station:DISL:CATA:1,2009-03-06T08:00:00Z,30.3085,-88.1395,2.233,11.84,1111122 
DISL,ioos:station:DISL:CATA:1,2009-03-06T08:30:00Z,30.3085,-88.1395,2.201,11.73,1111122 
DISL,ioos:station:DISL:CATA:1,2009-03-06T09:00:00Z,30.3085,-88.1395,2.176,11.71,1111122 
DISL,ioos:station:DISL:CATA:1,2009-03-06T09:30:00Z,30.3085,-88.1395,2.154,11.6,1111122 
DISL,ioos:station:DISL:CATA:1,2009-03-06T10:00:00Z,30.3085,-88.1395,2.138,11.59,1111122 
DISL,ioos:station:DISL:CATA:1,2009-03-06T10:30:00Z,30.3085,-88.1395,2.128,11.64,1111122 
DISL,ioos:station:DISL:CATA:1,2009-03-06T11:00:00Z,30.3085,-88.1395,2.122,11.72,1111122 
DISL,ioos:station:DISL:CATA:1,2009-03-06T11:30:00Z,30.3085,-88.1395,2.124,11.75,1111122 
DISL,ioos:station:DISL:CATA:1,2009-03-06T12:00:00Z,30.3085,-88.1395,2.131,11.76,1111122 
DISL,ioos:station:DISL:CATA:1,2009-03-06T12:30:00Z,30.3085,-88.1395,2.15,11.73,1111122 
DISL,ioos:station:DISL:CATA:1,2009-03-06T13:00:00Z,30.3085,-88.1395,2.177,11.63,1111122 
DISL,ioos:station:DISL:CATA:1,2009-03-06T13:30:00Z,30.3085,-88.1395,2.208,11.56,1111122 
DISL,ioos:station:DISL:CATA:1,2009-03-06T14:00:00Z,30.3085,-88.1395,2.243,11.47,1111122 
DISL,ioos:station:DISL:CATA:1,2009-03-06T14:30:00Z,30.3085,-88.1395,2.275,11.56,1111122 